Weather History for Monroe, NC

Change the Weather History Date:

Thursday, May 8, 2014

  Actual Average (KCLT) Record (KCLT)
Temperature  
Mean Temperature 74 °F 65 °F  
Max Temperature 90 °F 77 °F 96 °F (1940)
Min Temperature 57 °F 53 °F 35 °F (1989)
Degree Days  
Heating Degree Days 0 2  
Month to date heating degree days 23  
Since 1 July heating degree days 3355  
Cooling Degree Days 8 3  
Month to date cooling degree days 17  
Year to date cooling degree days 54  
Growing Degree Days 24 (Base 50)    
Moisture  
Dew Point 55 °F    
Average Humidity 55    
Maximum Humidity 81    
Minimum Humidity 30    
Precipitation  
Precipitation 0.00 in 0.10 in 2.41 in (2012)
Month to date precipitation 0.78  
Year to date precipitation 14.56  
Snow  
Snow 0.00 in 0.00 in 0.00 in ()
Month to date snowfall 0.0  
Since 1 July snowfall 4.3  
Snow Depth -    
Sea Level Pressure  
Sea Level Pressure 30.15 in    
Wind  
Wind Speed 6 mph (SW)    
Max Wind Speed 22 mph    
Max Gust Speed 26 mph    
Visibility 10 miles    
Events      
T = Trace of Precipitation, MM = Missing Value Source: NWS Daily Summary

Daily Weather History Graph

Daily Weather History Graph

Search for Another Location

Airport:

Trip Planner

Search our weather history database for the weather conditions in past years. The results will help you decide how hot, cold, wet, or windy it might be!

Date:

Astronomy

May. 08, 2014 Rise Set
Actual Time 6:24 AM EDT 8:13 PM EDT
Civil Twilight 5:57 AM EDT 8:41 PM EDT
Nautical Twilight 5:23 AM EDT 9:14 PM EDT
Astronomical Twilight 4:48 AM EDT 9:50 PM EDT
Moon 2:26 PM EDT (5/8) 2:40 AM EDT (5/8)
Length of Visible Light 14h 44m
Length of Day
13h 48m
Waxing Gibbous, 64% of the Moon is Illuminated
May 8
Waxing Gibbous
May 14
Full
May 21
Last Quarter
May 28
New
Jun 5
First Quarter

Hourly Weather History & Observations

Time (EDT) Temp. Heat Index Dew Point Humidity Pressure Visibility Wind Dir Wind Speed Gust Speed Precip Events Conditions
12:53 AM 64.0 °F - 55.0 °F 73% 30.12 in 10.0 mi SSW 3.5 mph - N/A   Clear
1:53 AM 64.9 °F - 53.1 °F 65% 30.12 in 10.0 mi SW 4.6 mph - N/A   Clear
2:53 AM 62.1 °F - 53.1 °F 72% 30.11 in 10.0 mi SSW 3.5 mph - N/A   Clear
3:53 AM 63.0 °F - 52.0 °F 67% 30.11 in 10.0 mi SW 5.8 mph - N/A   Clear
4:53 AM 60.1 °F - 53.1 °F 78% 30.13 in 10.0 mi WSW 5.8 mph - N/A   Clear
5:53 AM 60.1 °F - 53.1 °F 78% 30.15 in 10.0 mi SW 3.5 mph - N/A   Clear
6:53 AM 57.9 °F - 52.0 °F 81% 30.18 in 10.0 mi SW 4.6 mph - N/A   Clear
7:53 AM 64.9 °F - 55.9 °F 73% 30.18 in 10.0 mi SW 6.9 mph - N/A   Clear
8:53 AM 71.1 °F - 59.0 °F 66% 30.20 in 10.0 mi SSW 5.8 mph - N/A   Clear
9:53 AM 77.0 °F - 57.0 °F 50% 30.22 in 10.0 mi SW 10.4 mph - N/A   Clear
10:53 AM 82.0 °F 82.0 °F 57.9 °F 44% 30.22 in 10.0 mi WSW 11.5 mph 17.3 mph N/A   Clear
11:53 AM 84.9 °F 83.7 °F 55.9 °F 37% 30.20 in 10.0 mi WSW 13.8 mph - N/A   Clear
12:53 PM 88.0 °F 86.5 °F 55.9 °F 34% 30.19 in 10.0 mi SW 21.9 mph 26.5 mph N/A   Clear
2:53 PM 90.0 °F 87.9 °F 55.0 °F 30% 30.15 in 10.0 mi WSW 17.3 mph 24.2 mph N/A   Partly Cloudy
3:53 PM 89.1 °F 87.1 °F 55.0 °F 31% 30.12 in 10.0 mi West 13.8 mph 20.7 mph N/A   Clear
5:53 PM 88.0 °F 85.7 °F 53.1 °F 30% 30.11 in 10.0 mi SW 9.2 mph - N/A   Clear
6:53 PM 84.0 °F 83.0 °F 55.9 °F 38% 30.12 in 10.0 mi SW 8.1 mph - N/A   Clear
7:53 PM 80.1 °F 80.2 °F 55.9 °F 43% 30.12 in 10.0 mi SW 5.8 mph - N/A   Clear
8:53 PM 75.9 °F - 55.0 °F 48% 30.13 in 10.0 mi Calm Calm - N/A   Clear
9:53 PM 73.0 °F - 55.9 °F 55% 30.14 in 10.0 mi SSW 3.5 mph - N/A   Clear
10:53 PM 71.1 °F - 55.0 °F 57% 30.15 in 10.0 mi SW 3.5 mph - N/A   Clear
11:53 PM 69.1 °F - 55.9 °F 63% 30.14 in 10.0 mi SSW 3.5 mph - N/A   Clear